| time (UTC) | temp F | wind direction | speed MPH | gust MPH | rain 1hr in | rain 24hr in | rain mn in | humidity % | barometer mb |
| 20260505100057 | 72 | 163 | 0.0 | 2.0 | 0.00 | 0.00 | 0.00 | 8 | 1007.9 |
| 20260505095056 | 72 | 109 | 0.0 | 3.0 | 0.00 | 0.00 | 0.00 | 9 | 1008.0 |
| 20260505094040 | 72 | 104 | 0.0 | 2.0 | 0.00 | 0.00 | 0.00 | 10 | 1007.9 |
| 20260505093103 | 72 | 105 | 0.0 | 1.0 | 0.00 | 0.00 | 0.00 | 11 | 1007.9 |
| 20260505092048 | 72 | 82 | 0.0 | 3.0 | 0.00 | 0.00 | 0.00 | 12 | 1008.1 |
| 20260505091107 | 72 | 97 | 0.0 | 1.0 | 0.00 | 0.00 | 0.00 | 13 | 1008.2 |
| 20260505090124 | 72 | 97 | 0.0 | 1.0 | 0.00 | 0.00 | 0.00 | 15 | 1008.3 |
| 20260505085121 | 72 | 88 | 0.0 | 5.0 | 0.00 | 0.00 | 0.00 | 15 | 1008.1 |
| 20260505084125 | 72 | 103 | 0.0 | 6.0 | 0.00 | 0.00 | 0.00 | 16 | 1008.2 |
| 20260505083141 | 72 | 107 | 0.0 | 5.0 | 0.00 | 0.00 | 0.00 | 17 | 1008.2 |
| 20260505082142 | 72 | 315 | 0.0 | 3.0 | 0.00 | 0.00 | 0.00 | 18 | 1008.4 |
| 20260505081116 | 72 | 64 | 0.0 | 1.0 | 0.00 | 0.00 | 0.00 | 19 | 1008.4 |
| 20260505080048 | 72 | 64 | 0.0 | 2.0 | 0.00 | 0.00 | 0.00 | 21 | 1008.6 |
| 20260505075029 | 72 | 74 | 0.0 | 6.0 | 0.00 | 0.00 | 0.00 | 22 | 1008.6 |
| 20260505074036 | 72 | 101 | 0.0 | 5.0 | 0.00 | 0.00 | 0.00 | 23 | 1008.6 |
| 20260505073020 | 72 | 78 | 0.0 | 3.0 | 0.00 | 0.00 | 0.00 | 24 | 1008.8 |
| 20260505071948 | 72 | 258 | 0.0 | 1.0 | 0.00 | 0.00 | 0.00 | 26 | 1008.9 |
| 20260505070924 | 72 | 257 | 0.0 | 1.0 | 0.00 | 0.00 | 0.00 | 27 | 1009.0 |
| 20260505065938 | 72 | 109 | 0.0 | 1.0 | 0.00 | 0.00 | 0.00 | 28 | 1009.0 |
| 20260505064947 | 72 | 96 | 0.0 | 5.0 | 0.00 | 0.00 | 0.00 | 29 | 1009.1 |
| 20260505063933 | 72 | 81 | 0.0 | 10.0 | 0.00 | 0.00 | 0.00 | 31 | 1009.2 |
| 20260505062902 | 72 | 96 | 0.0 | 10.0 | 0.00 | 0.00 | 0.00 | 33 | 1009.3 |
| 20260505061843 | 72 | 111 | 0.0 | 6.0 | 0.00 | 0.00 | 0.00 | 35 | 1009.4 |
| 20260505055720 | 72 | 79 | 0.0 | 4.0 | 0.00 | 0.00 | 0.00 | 40 | 1009.5 |
| 20260505054646 | 72 | 217 | 0.0 | 2.0 | 0.00 | 0.00 | 0.00 | 42 | 1009.3 |
| 20260505053645 | 72 | 125 | 0.0 | 3.0 | 0.00 | 0.00 | 0.00 | 43 | 1009.6 |
| 20260505052619 | 72 | 101 | 0.0 | 6.0 | 0.00 | 0.00 | 0.00 | 45 | 1009.7 |
| 20260505051604 | 72 | 92 | 0.0 | 6.0 | 0.00 | 0.00 | 0.00 | 48 | 1009.9 |
| 20260505040120 | 74 | 154 | 1.0 | 8.0 | 0.00 | 0.00 | 0.00 | 56 | 1009.9 |
| 20260505035140 | 74 | 43 | 1.0 | 8.0 | 0.00 | 0.00 | 0.00 | 57 | 1010.1 |
| 20260505034154 | 74 | 11 | 0.0 | 9.0 | 0.00 | 0.00 | 0.00 | 57 | 1010.0 |
| 20260505030829 | 75 | 105 | 1.0 | 6.0 | 0.00 | 0.00 | 0.00 | 60 | 1010.2 |
| 20260505024651 | 75 | 90 | 1.0 | 8.0 | 0.00 | 0.00 | 0.00 | 62 | 1009.9 |
| 20260505023711 | 75 | 117 | 1.0 | 8.0 | 0.00 | 0.00 | 0.00 | 63 | 1009.8 |
| 20260505022643 | 75 | 103 | 1.0 | 8.0 | 0.00 | 0.00 | 0.00 | 63 | 1009.9 |
| 20260505021702 | 75 | 97 | 0.0 | 5.0 | 0.00 | 0.00 | 0.00 | 63 | 1009.9 |
| 20260505015519 | 75 | 123 | 0.0 | 7.0 | 0.00 | 0.00 | 0.00 | 63 | 1009.6 |
| 20260505014527 | 76 | 105 | 0.0 | 6.0 | 0.00 | 0.00 | 0.00 | 64 | 1009.5 |
| 20260505013510 | 76 | 227 | 0.0 | 6.0 | 0.00 | 0.00 | 0.00 | 64 | 1009.4 |
| 20260505012528 | 76 | 151 | 0.0 | 5.0 | 0.00 | 0.00 | 0.00 | 65 | 1009.3 |
| 20260505011528 | 77 | 101 | 0.0 | 3.0 | 0.00 | 0.00 | 0.00 | 65 | 1009.3 |
| 20260505010533 | 77 | 84 | 0.0 | 1.0 | 0.00 | 0.00 | 0.00 | 64 | 1009.4 |
| 20260505005534 | 77 | 84 | 0.0 | 5.0 | 0.00 | 0.00 | 0.00 | 64 | 1009.4 |
| 20260505004547 | 78 | 98 | 1.0 | 3.0 | 0.00 | 0.00 | 0.00 | 64 | 1009.4 |
| 20260505003522 | 78 | 100 | 0.0 | 3.0 | 0.00 | 0.00 | 0.00 | 64 | 1009.4 |
| 20260505002500 | 78 | 112 | 1.0 | 10.0 | 0.00 | 0.00 | 0.00 | 64 | 1009.4 |
| 20260505001503 | 79 | 113 | 1.0 | 10.0 | 0.00 | 0.00 | 0.00 | 63 | 1009.4 |
| 20260504235315 | 79 | 94 | 1.0 | 6.0 | 0.00 | 0.00 | 0.00 | 63 | 1009.4 |
| 20260504234259 | 79 | 121 | 0.0 | 7.0 | 0.00 | 0.00 | 0.00 | 63 | 1009.6 |
| 20260504233308 | 80 | 95 | 1.0 | 7.0 | 0.00 | 0.00 | 0.00 | 62 | 1009.5 |
| 20260504230020 | 81 | 76 | 1.0 | 11.0 | 0.00 | 0.00 | 0.00 | 59 | 1009.9 |
| 20260504224951 | 81 | 104 | 2.0 | 11.0 | 0.00 | 0.00 | 0.00 | 58 | 1009.8 |
| 20260504223934 | 82 | 119 | 1.0 | 9.0 | 0.00 | 0.00 | 0.00 | 59 | 1009.9 |
| 20260504222931 | 82 | 169 | 1.0 | 7.0 | 0.00 | 0.00 | 0.00 | 58 | 1010.1 |
| 20260504220804 | 82 | 239 | 0.0 | 5.0 | 0.00 | 0.00 | 0.00 | 57 | 1010.4 |
| 20260504214605 | 83 | 132 | 1.0 | 3.0 | 0.00 | 0.00 | 0.00 | 55 | 1010.3 |
| 20260504213613 | 83 | 155 | 1.0 | 6.0 | 0.00 | 0.00 | 0.00 | 54 | 1010.5 |
| 20260504212609 | 84 | 333 | 1.0 | 9.0 | 0.00 | 0.00 | 0.00 | 54 | 1010.6 |
| 20260504211602 | 83 | 98 | 1.0 | 9.0 | 0.00 | 0.00 | 0.00 | 56 | 1010.9 |
| 20260504210528 | 83 | 95 | 0.0 | 6.0 | 0.00 | 0.00 | 0.00 | 56 | 1011.1 |
| 20260504205503 | 83 | 72 | 2.0 | 7.0 | 0.00 | 0.00 | 0.00 | 54 | 1011.1 |
| 20260504204428 | 83 | 99 | 1.0 | 7.0 | 0.00 | 0.00 | 0.00 | 53 | 1011.4 |
| 20260504202321 | 83 | 61 | 1.0 | 6.0 | 0.00 | 0.00 | 0.00 | 55 | 1011.7 |
| 20260504201249 | 82 | 140 | 1.0 | 9.0 | 0.00 | 0.00 | 0.00 | 54 | 1011.9 |
| 20260504200242 | 83 | 58 | 1.0 | 9.0 | 0.00 | 0.00 | 0.00 | 53 | 1012.1 |
| 20260504195208 | 82 | 175 | 1.0 | 6.0 | 0.00 | 0.00 | 0.00 | 55 | 1012.2 |
| 20260504193100 | 83 | 150 | 1.0 | 10.0 | 0.00 | 0.00 | 0.00 | 53 | 1012.6 |
| 20260504192049 | 84 | 105 | 1.0 | 10.0 | 0.00 | 0.00 | 0.00 | 50 | 1012.7 |
| 20260504191110 | 84 | 102 | 1.0 | 6.0 | 0.00 | 0.00 | 0.00 | 52 | 1012.8 |
| 20260504190111 | 83 | 69 | 0.0 | 8.0 | 0.00 | 0.00 | 0.00 | 53 | 1013.1 |
| 20260504185058 | 83 | 182 | 1.0 | 8.0 | 0.00 | 0.00 | 0.00 | 52 | 1013.2 |
| 20260504184113 | 83 | 180 | 1.0 | 7.0 | 0.00 | 0.00 | 0.00 | 53 | 1013.2 |
| 20260504183047 | 82 | 185 | 1.0 | 6.0 | 0.00 | 0.00 | 0.00 | 53 | 1013.4 |
| 20260504182029 | 82 | 173 | 1.0 | 9.0 | 0.00 | 0.00 | 0.00 | 52 | 1013.5 |
| 20260504175839 | 82 | 117 | 1.0 | 5.0 | 0.00 | 0.00 | 0.00 | 52 | 1013.6 |
| 20260504174806 | 82 | 163 | 1.0 | 7.0 | 0.00 | 0.00 | 0.00 | 54 | 1013.7 |
| 20260504173808 | 81 | 276 | 1.0 | 8.0 | 0.00 | 0.00 | 0.00 | 54 | 1013.9 |
| 20260504172801 | 80 | 243 | 1.0 | 12.0 | 0.00 | 0.00 | 0.00 | 55 | 1014.0 |
| 20260504171746 | 81 | 94 | 1.0 | 12.0 | 0.00 | 0.00 | 0.00 | 55 | 1014.2 |
| 20260504170748 | 80 | 148 | 1.0 | 12.0 | 0.00 | 0.00 | 0.00 | 56 | 1014.4 |
| 20260504150200 | 74 | 155 | 2.0 | 8.0 | 0.00 | 0.00 | 0.00 | 63 | 1015.5 |
| 20260504130734 | 60 | 71 | 0.0 | 3.0 | 0.00 | 0.00 | 0.00 | 8 | 1015.3 |
| 20260504100257 | 58 | 107 | 0.0 | 0.0 | 0.00 | 0.00 | 0.00 | 28 | 1015.2 |